When you browse on this site, cookies collect data to enhance your experience and personalize the content and advertising you see.
Visit our Privacy Policy to learn more. By continuing to use the site, you agree to this use of cookies and data.

Hourly Weather Zaluzhnyy

Today, 11 July, Saturday

Time Temperature Precipitation Wind Pressure Humidity
00:00 +20°C° 0 mm 4 mps 756 mmHg 64%
01:00 +20°C° 0 mm 4 mps 756 mmHg 67%
02:00 +19°C° 0 mm 4 mps 756 mmHg 70%
03:00 +18°C° 0 mm 3 mps 756 mmHg 73%
04:00 +19°C° 0 mm 3 mps 756 mmHg 73%
05:00 +19°C° 0 mm 4 mps 756 mmHg 73%
06:00 +19°C° 0 mm 4 mps 757 mmHg 74%
07:00 +21°C° 0 mm 4 mps 757 mmHg 67%
08:00 +22°C° 0 mm 5 mps 757 mmHg 60%
09:00 +25°C° 0 mm 5 mps 757 mmHg 53%
10:00 +26°C° 0 mm 5 mps 756 mmHg 49%
11:00 +28°C° 0 mm 5 mps 756 mmHg 45%
12:00 +29°C° 0 mm 5 mps 756 mmHg 41%
13:00 +29°C° 0 mm 5 mps 756 mmHg 39%
14:00 +30°C° 0 mm 5 mps 755 mmHg 37%
15:00 +30°C° 0 mm 5 mps 755 mmHg 35%
16:00 +30°C° 0 mm 5 mps 755 mmHg 37%
17:00 +30°C° 0 mm 5 mps 754 mmHg 39%
18:00 +29°C° 0 mm 4 mps 754 mmHg 40%
19:00 +28°C° 0 mm 4 mps 754 mmHg 45%
20:00 +26°C° 0 mm 4 mps 754 mmHg 50%
21:00 +23°C° 0 mm 4 mps 754 mmHg 54%
22:00 +23°C° 0 mm 4 mps 754 mmHg 58%
23:00 +23°C° 0 mm 5 mps 753 mmHg 61%

Tomorrow, 12 July, Sunday

Time Temperature Precipitation Wind Pressure Humidity
00:00 +22°C° 0 mm 5 mps 753 mmHg 64%
01:00 +22°C° 0 mm 5 mps 753 mmHg 68%
02:00 +22°C° 0 mm 4 mps 753 mmHg 72%
03:00 +22°C° 0 mm 4 mps 752 mmHg 75%
04:00 +22°C° 0 mm 4 mps 752 mmHg 77%
05:00 +22°C° 0 mm 4 mps 752 mmHg 78%
06:00 +22°C° 0 mm 4 mps 752 mmHg 79%
07:00 +25°C° 0 mm 4 mps 752 mmHg 73%
08:00 +27°C° 0 mm 5 mps 752 mmHg 67%
09:00 +29°C° 0 mm 5 mps 752 mmHg 61%
10:00 +32°C° 0 mm 5 mps 751 mmHg 55%
11:00 +33°C° 0 mm 5 mps 751 mmHg 49%
12:00 +35°C° 0 mm 4 mps 750 mmHg 42%
13:00 +35°C° 0 mm 4 mps 750 mmHg 41%
14:00 +36°C° 0 mm 4 mps 750 mmHg 39%
15:00 +36°C° 0 mm 4 mps 749 mmHg 38%
16:00 +33°C° 1.6 mm 5 mps 749 mmHg 48%
17:00 +30°C° 1.6 mm 6 mps 748 mmHg 59%
18:00 +27°C° 1.6 mm 7 mps 748 mmHg 69%
19:00 +26°C° 2 mm 6 mps 748 mmHg 74%
20:00 +23°C° 2 mm 6 mps 748 mmHg 79%
21:00 +22°C° 2 mm 5 mps 748 mmHg 83%
22:00 +22°C° 0.8 mm 4 mps 748 mmHg 83%
23:00 +22°C° 0.8 mm 4 mps 748 mmHg 82%

Day after tomorrow, 13 July, Monday

Time Temperature Precipitation Wind Pressure Humidity
00:00 +22°C° 0.8 mm 3 mps 747 mmHg 82%
01:00 +22°C° 0.3 mm 3 mps 747 mmHg 81%
02:00 +22°C° 0.3 mm 3 mps 747 mmHg 80%
03:00 +24°C° 0.3 mm 3 mps 746 mmHg 78%
04:00 +24°C° 0.1 mm 3 mps 746 mmHg 78%
05:00 +23°C° 0.1 mm 4 mps 746 mmHg 77%
06:00 +23°C° 0.1 mm 4 mps 746 mmHg 76%
07:00 +26°C° 0 mm 4 mps 746 mmHg 70%
08:00 +27°C° 0 mm 5 mps 745 mmHg 63%
09:00 +29°C° 0 mm 5 mps 745 mmHg 57%
10:00 +32°C° 0 mm 5 mps 746 mmHg 51%
11:00 +33°C° 0 mm 5 mps 746 mmHg 46%
12:00 +35°C° 0 mm 4 mps 746 mmHg 40%
13:00 +34°C° 0 mm 4 mps 745 mmHg 40%
14:00 +34°C° 0 mm 4 mps 745 mmHg 40%
15:00 +34°C° 0 mm 4 mps 745 mmHg 40%
16:00 +33°C° 0 mm 4 mps 745 mmHg 42%
17:00 +33°C° 0 mm 3 mps 744 mmHg 45%
18:00 +31°C° 0 mm 3 mps 744 mmHg 48%
19:00 +30°C° 0 mm 2 mps 744 mmHg 50%
20:00 +28°C° 0 mm 1 mps 744 mmHg 52%
21:00 +27°C° 0 mm 1 mps 745 mmHg 54%
22:00 +27°C° 0 mm 1 mps 745 mmHg 57%
23:00 +26°C° 0 mm 1 mps 744 mmHg 61%

14 July, Tuesday

Time Temperature Precipitation Wind Pressure Humidity
00:00 +25°C° 0 mm 2 mps 744 mmHg 64%
01:00 +24°C° 0 mm 2 mps 744 mmHg 67%
02:00 +24°C° 0 mm 2 mps 744 mmHg 71%
03:00 +23°C° 0 mm 2 mps 744 mmHg 75%
04:00 +23°C° 0.1 mm 2 mps 744 mmHg 75%
05:00 +24°C° 0.1 mm 2 mps 744 mmHg 76%
06:00 +24°C° 0.1 mm 2 mps 744 mmHg 76%
07:00 +24°C° 0.6 mm 2 mps 745 mmHg 77%
08:00 +24°C° 0.6 mm 2 mps 745 mmHg 79%
09:00 +24°C° 0.6 mm 3 mps 745 mmHg 80%
10:00 +26°C° 0.5 mm 3 mps 746 mmHg 73%
11:00 +27°C° 0.5 mm 4 mps 746 mmHg 66%
12:00 +29°C° 0.5 mm 4 mps 746 mmHg 59%
13:00 +29°C° 0.4 mm 5 mps 746 mmHg 58%
14:00 +29°C° 0.4 mm 6 mps 746 mmHg 58%
15:00 +29°C° 0.4 mm 7 mps 747 mmHg 57%
16:00 +28°C° 0 mm 7 mps 747 mmHg 58%
17:00 +28°C° 0 mm 6 mps 747 mmHg 59%
18:00 +27°C° 0 mm 6 mps 747 mmHg 60%
19:00 +26°C° 0 mm 5 mps 748 mmHg 65%
20:00 +23°C° 0 mm 4 mps 748 mmHg 69%
21:00 +21°C° 0 mm 4 mps 748 mmHg 74%
22:00 +21°C° 0 mm 4 mps 749 mmHg 76%
23:00 +20°C° 0 mm 4 mps 749 mmHg 78%

15 July, Wednesday

Time Temperature Precipitation Wind Pressure Humidity
00:00 +19°C° 0 mm 4 mps 749 mmHg 80%
01:00 +18°C° 0 mm 3 mps 749 mmHg 82%
02:00 +18°C° 0 mm 3 mps 749 mmHg 84%
03:00 +17°C° 0 mm 3 mps 749 mmHg 86%
04:00 +17°C° 0 mm 4 mps 750 mmHg 86%
05:00 +18°C° 0 mm 4 mps 750 mmHg 86%
06:00 +17°C° 0 mm 5 mps 750 mmHg 86%
07:00 +19°C° 0 mm 5 mps 751 mmHg 80%
08:00 +20°C° 0 mm 5 mps 751 mmHg 75%
09:00 +21°C° 0 mm 5 mps 751 mmHg 70%
10:00 +22°C° 0 mm 5 mps 751 mmHg 64%
11:00 +25°C° 0 mm 5 mps 751 mmHg 59%
12:00 +26°C° 0 mm 5 mps 752 mmHg 53%
13:00 +27°C° 0.1 mm 5 mps 752 mmHg 51%
14:00 +27°C° 0.1 mm 5 mps 752 mmHg 49%
15:00 +28°C° 0.1 mm 5 mps 752 mmHg 47%
16:00 +27°C° 0 mm 4 mps 752 mmHg 50%
17:00 +26°C° 0 mm 4 mps 752 mmHg 52%
18:00 +26°C° 0 mm 3 mps 752 mmHg 54%
19:00 +25°C° 0 mm 3 mps 752 mmHg 55%
20:00 +24°C° 0 mm 2 mps 752 mmHg 57%
21:00 +23°C° 0 mm 2 mps 753 mmHg 58%
22:00 +21°C° 0 mm 2 mps 753 mmHg 59%
23:00 +20°C° 0 mm 2 mps 753 mmHg 60%

16 July, Thursday

Time Temperature Precipitation Wind Pressure Humidity
00:00 +19°C° 0 mm 2 mps 753 mmHg 60%
01:00 +19°C° 0 mm 2 mps 753 mmHg 63%
02:00 +18°C° 0 mm 2 mps 753 mmHg 66%
03:00 +18°C° 0 mm 2 mps 753 mmHg 69%
04:00 +18°C° 0 mm 2 mps 753 mmHg 69%
05:00 +18°C° 0 mm 2 mps 753 mmHg 69%
06:00 +20°C° 0 mm 1 mps 753 mmHg 70%
07:00 +21°C° 0 mm 1 mps 753 mmHg 62%
08:00 +23°C° 0 mm 1 mps 753 mmHg 54%
09:00 +25°C° 0 mm 1 mps 753 mmHg 45%
10:00 +26°C° 0 mm 1 mps 753 mmHg 42%
11:00 +27°C° 0 mm 1 mps 753 mmHg 39%
12:00 +28°C° 0 mm 1 mps 753 mmHg 36%
13:00 +28°C° 0 mm 1 mps 752 mmHg 36%
14:00 +28°C° 0 mm 2 mps 752 mmHg 36%
15:00 +28°C° 0 mm 2 mps 752 mmHg 36%
16:00 +27°C° 0 mm 2 mps 752 mmHg 38%
17:00 +27°C° 0 mm 2 mps 751 mmHg 40%
18:00 +27°C° 0 mm 3 mps 751 mmHg 42%
19:00 +25°C° 0 mm 2 mps 751 mmHg 46%
20:00 +24°C° 0 mm 2 mps 752 mmHg 49%
21:00 +21°C° 0 mm 2 mps 752 mmHg 53%
22:00 +21°C° 0 mm 2 mps 751 mmHg 55%
23:00 +20°C° 0 mm 2 mps 751 mmHg 57%
Show more